Home > Weather > Danmarkshavn > Past weeks

Flag for Greenland Past Weather in Danmarkshavn, Greenland — Yesterday and Last 2 Weeks

Now
45 °F

Sunny.


Feels Like: 40 °F
Forecast: N/A
Wind: 9 mph from Southwest

Location: Danmarkshavn

Current Time: Aug 24, 2016 at 11:30:44 PM

Latest Report: Aug 24, 2016 at 10:00 PM


Visibility: 28 mi

Pressure: 29.89 "Hg

Humidity: 61%

Dew Point: 32 °F

Location of DanmarkshavnLocation

Past Weather in Danmarkshavn — Graph

°F

Danmarkshavn Temperature Yesterday

Maximum temperature yesterday: 49 °F (at 1:00 AM)
Minimum temperature yesterday: 38 °F (at 10:00 PM)
Average temperature yesterday: 44 °F

High & Low Weather Summary for the Past Weeks

 TemperatureHumidityPressure
High56 °F (Aug 22, 7:00 PM)100% (Aug 13, 4:00 AM)30.16 "Hg (Aug 13, 4:00 AM)
Low30 °F (Aug 18, 4:00 AM)34% (Aug 15, 3:00 PM)29.50 "Hg (Aug 13, 4:00 AM)
Average41 °F67%29.77 "Hg
* Reported Aug 9 10:00 PM — Aug 24 10:00 PM, Danmarkshavn, Weather by CustomWeather, © 2016

Note: Actual official high and low records may vary slightly from our data, if they occured in-between our weather recording intervals... More about our weather records

Advertising

Danmarkshavn Weather History for the Previous 24 Hours

Scroll right to see more
 ConditionsComfort  
Time TempWeatherWind HumidityBarometerVisibility
10:00 PM
Wed, Aug 24
45 °FSunny.9 mph61%29.89 "Hg28 mi
9:00 PM47 °FSunny.13 mph56%29.88 "Hg28 mi
8:00 PM47 °FSunny.15 mph56%29.87 "Hg31 mi
7:00 PM48 °FPassing clouds.16 mph53%29.88 "Hg31 mi
6:00 PM48 °FSunny.14 mph51%29.87 "Hg31 mi
5:00 PM49 °FSunny.17 mph47%29.88 "Hg25 mi
4:00 PM52 °FSunny.16 mph43%29.90 "Hg31 mi
3:00 PM52 °FSunny.20 mph41%29.89 "Hg31 mi
2:00 PM51 °FSunny.18 mph42%29.88 "Hg28 mi
1:00 PM48 °FSunny.18 mph50%29.90 "Hg25 mi
12:00 PM48 °FSunny.22 mph50%29.89 "Hg25 mi
11:00 AM47 °FSunny.23 mph50%29.90 "Hg31 mi
10:00 AM47 °FSunny.23 mph47%29.90 "Hg31 mi
9:00 AM46 °FSunny.13 mph52%29.93 "Hg31 mi
8:00 AM45 °FSunny.10 mph54%29.95 "Hg31 mi
7:00 AM43 °FSunny.13 mph57%29.95 "Hg31 mi
6:00 AM43 °FSunny.16 mph58%29.95 "Hg31 mi
5:00 AM41 °FSunny.1 mph66%29.97 "Hg31 mi
4:00 AM44 °FSunny.10 mph57%29.96 "Hg31 mi
3:00 AM41 °FClear.7 mph71%29.97 "Hg31 mi
2:00 AM39 °FClear.2 mph82%29.96 "Hg31 mi
1:00 AM39 °FClear.13 mph85%29.95 "Hg31 mi
12:00 AM41 °FPassing clouds.13 mph78%29.94 "Hg31 mi
11:00 PM
Tue, Aug 23
43 °FOvercast.9 mph71%29.94 "Hg31 mi
Weather by CustomWeather, © 2016

See weather overviewHow to use our weather pages